TimeEDT,TemperatureF,Dew PointF,Humidity,Sea Level PressureIn,VisibilityMPH,Wind Direction,Wind SpeedMPH,Gust SpeedMPH,PrecipitationIn,Events,Conditions,WindDirDegrees,DateUTC
12:04 AM,48.2,46.4,93,29.81,4.0,North,10.4,-,0.00,Rain,Light Rain,10,2013-05-11 04:04:00
12:53 AM,48.0,46.0,93,29.82,4.0,North,9.2,-,0.01,,Overcast,350,2013-05-11 04:53:00
1:53 AM,46.9,44.1,90,29.83,4.0,NW,13.8,-,N/A,,Overcast,320,2013-05-11 05:53:00
2:27 AM,46.4,44.6,93,29.83,5.0,NNW,11.5,-,N/A,,Overcast,330,2013-05-11 06:27:00
2:51 AM,46.4,42.8,87,29.83,5.0,NW,9.2,-,N/A,,Overcast,320,2013-05-11 06:51:00
2:53 AM,46.0,43.0,89,29.84,5.0,NW,10.4,-,N/A,,Overcast,320,2013-05-11 06:53:00
3:53 AM,45.0,43.0,93,29.84,5.0,NW,10.4,-,N/A,,Overcast,310,2013-05-11 07:53:00
4:53 AM,45.0,43.0,93,29.85,8.0,NW,10.4,-,N/A,,Overcast,310,2013-05-11 08:53:00
5:53 AM,45.0,43.0,93,29.85,3.0,NW,9.2,-,N/A,,Overcast,320,2013-05-11 09:53:00
6:53 AM,45.0,43.0,93,29.86,7.0,NW,11.5,-,N/A,,Overcast,310,2013-05-11 10:53:00
7:53 AM,45.0,43.0,93,29.87,10.0,WNW,8.1,-,N/A,,Overcast,300,2013-05-11 11:53:00
8:20 AM,46.4,42.8,87,29.86,10.0,NW,6.9,-,N/A,,Overcast,320,2013-05-11 12:20:00
8:53 AM,45.0,43.0,93,29.86,10.0,NW,8.1,-,N/A,,Overcast,320,2013-05-11 12:53:00
9:53 AM,46.0,43.0,89,29.86,10.0,NW,5.8,-,N/A,,Overcast,310,2013-05-11 13:53:00
10:53 AM,46.9,43.0,86,29.86,10.0,WNW,5.8,-,N/A,,Overcast,300,2013-05-11 14:53:00
11:53 AM,46.9,42.1,83,29.87,10.0,West,4.6,-,N/A,,Overcast,270,2013-05-11 15:53:00
12:53 PM,46.9,43.0,86,29.86,9.0,West,4.6,-,N/A,,Overcast,270,2013-05-11 16:53:00
1:53 PM,46.9,44.1,90,29.86,7.0,NW,3.5,-,N/A,,Overcast,310,2013-05-11 17:53:00
2:53 PM,48.9,46.0,90,29.85,6.0,Calm,Calm,-,N/A,,Overcast,0,2013-05-11 18:53:00
3:50 PM,51.8,46.4,82,29.83,6.0,WNW,3.5,-,N/A,,Overcast,300,2013-05-11 19:50:00
3:53 PM,50.0,46.0,86,29.83,6.0,Calm,Calm,-,N/A,,Overcast,0,2013-05-11 19:53:00
4:53 PM,52.0,46.9,83,29.81,7.0,WNW,3.5,-,N/A,,Overcast,290,2013-05-11 20:53:00
5:32 PM,53.6,46.4,77,29.81,8.0,SW,11.5,16.1,N/A,,Overcast,230,2013-05-11 21:32:00
5:53 PM,55.9,48.0,75,29.81,10.0,SW,12.7,-,N/A,,Overcast,230,2013-05-11 21:53:00
6:53 PM,55.9,46.0,69,29.80,10.0,SW,15.0,20.7,N/A,,Mostly Cloudy,230,2013-05-11 22:53:00
7:53 PM,55.0,46.0,72,29.80,10.0,SW,11.5,19.6,N/A,,Mostly Cloudy,220,2013-05-11 23:53:00
8:53 PM,55.0,46.0,72,29.80,10.0,SW,13.8,-,N/A,,Overcast,220,2013-05-12 00:53:00
9:09 PM,53.6,46.4,77,29.79,10.0,SW,15.0,21.9,N/A,,Overcast,230,2013-05-12 01:09:00
9:28 PM,53.6,46.4,77,29.79,10.0,SW,13.8,-,N/A,,Mostly Cloudy,230,2013-05-12 01:28:00
9:53 PM,54.0,46.0,75,29.81,10.0,SW,13.8,-,N/A,,Mostly Cloudy,230,2013-05-12 01:53:00
10:23 PM,48.2,44.6,87,29.83,7.0,West,24.2,38.0,0.03,Rain,Light Rain,280,2013-05-12 02:23:00
10:48 PM,48.2,41.0,76,29.85,10.0,WNW,18.4,27.6,0.03,,Overcast,290,2013-05-12 02:48:00
10:53 PM,48.9,42.1,77,29.86,10.0,West,16.1,27.6,0.03,,Overcast,280,2013-05-12 02:53:00
11:04 PM,48.2,42.8,82,29.86,10.0,WNW,25.3,32.2,0.00,Rain,Light Rain,290,2013-05-12 03:04:00
11:53 PM,46.0,39.0,76,29.90,10.0,NW,19.6,29.9,0.01,,Overcast,310,2013-05-12 03:53:00